Home   Weather   Castrop-Rauxel   Past weeks

Flag for Germany Past Weather in Castrop-Rauxel, North Rhine-Westphalia, Germany — Yesterday and Last 2 Weeks

Now
55 °F

Light rain. Broken clouds.


Feels Like: 55 °F
Forecast: 57 / 62 °F
Wind: 5 mph from South

Location: Dortmund / Wickede

Current Time: Jul 24, 2017 at 10:49:42 am

Latest Report: Jul 24, 2017 at 10:20 am


Visibility: N/A

Pressure: 29.80 "Hg

Humidity: 88%

Dew Point: 52 °F

Location of Castrop-RauxelLocation

Past Weather in Castrop-Rauxel — Graph

°F

Castrop-Rauxel Temperature Yesterday

Maximum temperature yesterday: 68 °F (at 2:20 pm)
Minimum temperature yesterday: 57 °F (at 5:20 am)
Average temperature yesterday: 62 °F

High & Low Weather Summary for the Past Weeks

 TemperatureHumidityPressure
High90 °F (Jul 19, 2:50 pm)94% (Jul 10, 7:20 am)30.21 "Hg (Jul 10, 7:20 am)
Low45 °F (Jul 13, 5:20 am)29% (Jul 19, 2:50 pm)29.68 "Hg (Jul 12, 1:20 pm)
Average66 °F63%29.96 "Hg
* Reported Jul 9 9:20 am — Jul 24 9:50 am, Castrop-Rauxel. Weather by CustomWeather, © 2017

Note: Actual official high and low records may vary slightly from our data, if they occured in-between our weather recording intervals... More about our weather records

Advertising

Castrop-Rauxel Weather History for the Previous 24 Hours

Scroll right to see more
 ConditionsComfort  
Time TempWeatherWind HumidityBarometerVisibility
9:50 am
Mon, Jul 24
55 °FLight rain. Partly sunny.5 mph88%29.80 "HgN/A
9:20 am55 °FLight rain. Partly sunny.6 mph88%29.80 "HgN/A
8:50 am55 °FLight rain. Partly sunny.5 mph88%29.80 "HgN/A
8:20 am55 °FLight rain. Partly sunny.5 mph88%29.80 "HgN/A
7:50 am55 °FLight rain. Clear.5 mph88%29.80 "HgN/A
7:20 am55 °FLight rain. Clear.5 mph88%29.80 "HgN/A
6:50 am55 °FLight rain. Clear.7 mph88%29.80 "HgN/A
6:20 am55 °FScattered clouds.7 mph88%29.80 "HgN/A
5:20 am57 °FClear.5 mph77%29.83 "Hg10 mi
9:50 pm
Sun, Jul 23
61 °FClear.10 mph63%29.92 "Hg10 mi
9:20 pm61 °FSunny.12 mph63%29.92 "Hg10 mi
8:50 pm61 °FSunny.13 mph68%29.92 "Hg10 mi
8:20 pm63 °FPassing clouds.8 mph68%29.92 "HgN/A
7:50 pm63 °FPassing clouds.7 mph68%29.92 "HgN/A
7:20 pm63 °FScattered showers. Scattered clouds.9 mph64%29.92 "HgN/A
6:50 pm64 °FScattered showers. Clear.8 mph64%29.92 "HgN/A
6:20 pm64 °FScattered showers. Clear.10 mph64%29.92 "HgN/A
5:20 pm63 °FScattered clouds.16 mph59%29.92 "HgN/A
4:50 pm66 °FSunny.14 mph52%29.92 "Hg10 mi
4:20 pm66 °FScattered clouds.16 mph56%29.92 "HgN/A
3:20 pm66 °FPassing clouds.18 mph49%29.92 "HgN/A
2:50 pm64 °FPassing clouds.13 mph56%29.92 "HgN/A
2:20 pm68 °FPassing clouds.12 mph53%29.92 "HgN/A
1:50 pm64 °FPassing clouds.15 mph56%29.95 "HgN/A
1:20 pm64 °FScattered clouds.17 mph56%29.92 "HgN/A
12:50 pm64 °FPassing clouds.12 mph56%29.92 "HgN/A
12:20 pm66 °FScattered clouds.15 mph60%29.95 "HgN/A
11:50 am63 °FScattered clouds.15 mph64%29.95 "HgN/A
11:20 am61 °FSunny.14 mph68%29.95 "Hg10 mi
10:50 am61 °FPassing clouds.13 mph72%29.92 "HgN/A
10:20 am61 °FPassing clouds.12 mph72%29.92 "HgN/A
Weather by CustomWeather, © 2017

See weather overviewHow to use our weather pages